Location: �huns
(47.7722°N, 6.3135°E)
Time: 05:09:08
(UTC+00:00)

Daily predictions for brighter satellites

Satellite Brightness Start Highest point End
(mag) Time Altitude Azimuth Time Altitude Azimuth Time Altitude Azimuth
Thor Agena Rocket 4.2 00:03:14 10° N 00:07:30 47° NW 00:07:30 47° NW
Cosmos 2074 Rocket 4.2 00:03:13 10° NNW 00:08:59 59° WNW 00:08:59 59° WNW
SJ 16-02 3.8 00:10:38 15° ENE 00:10:38 15° ENE 00:12:12 10° ENE
COSMOS 2406 4.4 00:12:44 10° NNW 00:18:04 39° NE 00:20:05 29° E
Meteor 1-27 Rocket 3.9 00:20:05 64° ENE 00:20:05 64° ENE 00:25:20 10° NNE
ADEOS II 4.5 00:17:42 10° ENE 00:19:43 12° E 00:20:56 11° E
Cosmos 962 Rocket 4.5 00:15:35 10° N 00:21:48 70° E 00:22:04 69° E
Meteor 1-11 Rocket 3.8 00:16:15 10° NNW 00:21:46 77° NW 00:21:46 77° NW
ATLAS 5 CENTAUR R/B 3.2 00:17:15 10° NNW 00:22:22 43° NE 00:28:23 10° ESE
Cosmos 1844 3.8 00:23:31 76° N 00:23:31 76° N 00:28:51 10° NNE
Cosmos 968 Rocket 4.4 00:23:54 40° NW 00:23:54 40° NW 00:28:37 10° N
Cosmos 1610 Rocket 4.5 00:20:12 10° NNW 00:26:07 68° WNW 00:26:07 68° WNW
Cosmos 773 Rocket 4.3 00:22:10 10° NNW 00:26:35 62° NNW 00:26:35 62° NNW
USA 281 3.4 00:29:00 56° W 00:29:00 56° W 00:35:00 10° NNW
Nadezhda 1 Rocket 4.1 00:35:58 65° W 00:36:09 66° WNW 00:42:31 10° N
CZ-4C R/B 3.9 00:30:40 10° NW 00:37:13 45° NE 00:44:54 10° ESE
Cosmos 2218 Rocket 4.4 00:32:59 10° N 00:39:03 56° ENE 00:40:14 49° ESE
MOZ.5/SAFIR/RUBIN 5/SL-8 4.3 00:41:06 56° NNE 00:41:06 56° NNE 00:44:54 10° N
Cosmos 2366 rocket 4.2 00:42:38 10° N 00:48:46 64° ENE 00:49:52 54° SE
SL-16 R/B 2.8 00:48:09 46° SE 00:49:53 63° ENE 00:56:05 10° N
Cosmos 1340 Rocket 4.2 00:47:21 10° N 00:49:55 37° N 00:49:55 37° N
Cosmos 1538 Rocket 4.1 00:48:00 10° NNW 00:53:18 79° NE 00:53:18 79° NE
NOSS 3-3 (A) 4.4 00:58:28 44° SE 00:58:41 44° ESE 01:04:46 10° NE
NOSS 3-3 (C) 4.4 00:58:34 44° SE 00:58:47 44° ESE 01:04:51 10° NE
USA 305 4.0 00:59:37 43° N 00:59:37 43° N 01:03:22 10° ENE
ATLAS 2AS CENTAUR R/B 4.5 00:55:47 10° NW 01:02:31 33° NNE 01:08:49 10° E
Cosmos 2228 Rocket 4.5 01:03:56 30° NW 01:03:56 30° NW 01:06:52 10° N
Cosmos 1844 Rocket 3.6 01:04:03 36° WNW 01:04:43 37° NW 01:09:53 10° NNE
Cosmos 1238 Rocket 3.9 00:59:51 10° N 01:06:12 88° W 01:07:15 66° S
Helios 1B rocket 3.2 01:07:01 10° NNE 01:10:19 51° NE 01:10:19 51° NE
SL-4 R/B 2.7 01:11:02 62° NNW 01:11:29 66° NNE 01:16:17 10° E
Cosmos 1733 Rocket 3.7 01:10:41 10° NNW 01:13:59 50° NNW 01:13:59 50° NNW
USA 306 4.0 01:16:44 39° NNW 01:17:10 40° NNW 01:21:15 10° ENE
Cosmos 2082 Rocket 2.8 01:14:11 10° NNW 01:19:43 55° ENE 01:23:49 18° SE
Cosmos 1680 Rocket 4.4 01:15:00 10° NNW 01:20:08 48° ENE 01:23:26 21° SE
UNK 3.8 01:24:38 72° NW 01:24:38 72° NW 01:28:52 10° NNW
Resurs 1-4 Rocket 1.9 01:20:11 10° NNE 01:25:30 88° ESE 01:25:56 76° S
Cosmos 1833 Rocket 2.5 01:22:22 10° NNW 01:28:01 74° WSW 01:28:24 71° SSW
ADEOS Rocket 4.1 01:24:53 10° SE 01:31:02 48° ENE 01:37:52 10° N
BREEZE-M R/B 3.3 01:33:23 71° WNW 01:33:51 80° N 01:41:25 10° ENE
USA 307 4.2 01:33:14 32° NW 01:34:22 38° N 01:38:25 10° ENE
Cosmos 1703 Rocket 4.4 01:34:02 40° ESE 01:34:34 42° E 01:38:40 10° NNE
CZ-2D R/B 2.1 01:31:22 10° NNE 01:36:53 78° WNW 01:37:41 64° SW
ERBS 3.9 01:38:39 32° N 01:38:39 32° N 01:40:59 10° NE
Cosmos 1862 Rocket 3.8 01:38:24 61° NW 01:38:24 61° NW 01:42:23 10° N
Cosmos 2181 Rocket 4.1 01:38:47 50° WSW 01:39:56 57° WNW 01:46:07 10° N
Meteor 1-28 Rocket 4.3 01:39:56 37° E 01:40:32 40° ENE 01:44:03 10° N
USA 234 3.5 01:38:03 10° ENE 01:44:28 54° SE 01:46:23 41° S
Cosmos 2278 Rocket 2.1 01:44:17 60° SW 01:45:22 83° WNW 01:51:05 10° NNE
USA 308 4.3 01:45:26 26° NW 01:47:08 36° N 01:51:09 10° ENE
SJ 16-02 1.5 01:47:37 58° WNW 01:47:37 58° WNW 01:51:56 10° NNE
Cosmos 923 Rocket 3.8 01:42:49 10° NNW 01:48:03 81° WSW 01:49:14 54° S
SL-8 Rocket 4.5 01:42:28 10° NNW 01:48:17 41° W 01:48:53 40° WSW
Cosmos 1943 Rocket 4.0 01:47:45 14° SE 01:51:05 23° ESE 01:55:24 10° NE
Landsat 4 4.0 01:47:36 10° N 01:50:46 59° NNW 01:50:46 59° NNW
Cosmos 990 Rocket 4.2 01:51:51 48° SSE 01:53:06 65° ESE 01:58:18 10° NNE
Gbstr 26 Del rocket 3.6 01:51:53 45° WSW 01:53:48 82° NNW 01:58:56 10° ENE
BREEZE-M DEB (TANK) 4.0 01:46:43 10° WNW 01:52:42 42° W 01:52:42 42° W
Cosmos 158 Rocket 4.1 01:50:46 10° NNW 01:55:07 50° W 01:55:07 50° W
Meteor 2-9 Rocket 4.4 01:50:31 10° NNW 01:56:13 54° W 01:57:13 49° SW
Okean 1-7 3.1 01:57:13 60° SSE 01:57:49 70° E 02:02:04 10° NNE
ADEOS II 2.0 01:54:57 10° NNE 02:00:14 82° ESE 02:01:52 46° S
COSMOS 2406 3.7 01:57:08 10° NW 02:02:05 40° W 02:02:05 40° W
Cosmos 1975 3.7 02:01:09 10° NNW 02:04:06 37° WNW 02:04:06 37° WNW
Cosmos 1937 Rocket 4.1 02:03:07 32° SSE 02:05:08 49° ESE 02:10:06 10° NNE
ARIANE 5 R/B 4.0 02:02:27 10° NNE 02:07:10 33° E 02:11:10 13° SSE
ATLAS 5 CENTAUR R/B 2.5 02:01:45 10° NW 02:07:12 49° WSW 02:09:45 32° S
Cosmos 1898 Rocket 3.6 02:08:04 42° S 02:09:51 74° ESE 02:15:08 10° NNE
Cosmos 2369 Rocket 4.4 02:08:35 10° SE 02:12:17 18° E 02:15:59 10° ENE
NPP 4.1 02:10:00 10° N 02:15:09 47° WNW 02:16:37 37° WSW
Cosmos 2297 4.3 02:15:39 25° S 02:18:44 51° ESE 02:24:15 10° NE
ARGOS Delta rocket 3.5 02:14:21 10° N 02:18:47 79° WNW 02:19:56 49° SSW
AQUA 4.3 02:17:36 10° N 02:22:07 43° WNW 02:23:10 37° WSW
DELTA 2 DEB (DPAF) 4.4 02:21:56 44° WSW 02:22:09 45° W 02:26:27 10° NNW
Sich 1 Rocket 4.2 02:18:05 10° N 02:22:37 58° ENE 02:27:07 10° SSE
CBERS-1 3.9 02:18:38 10° NNE 02:23:47 88° WNW 02:26:03 34° SSW
Cosmos 2242 Rocket 3.7 02:23:59 47° WSW 02:24:48 55° WNW 02:29:08 10° N
IDEFIX/ARIANE 42P 2.7 02:19:56 10° NNE 02:25:09 70° ESE 02:28:15 25° S
CZ-4C R/B 2.9 02:19:04 10° NW 02:26:16 65° SW 02:34:32 10° SSE
Cosmos 2239 Rocket 4.4 02:21:19 10° NNW 02:27:28 66° W 02:31:25 23° S
CREW DRAGON DEMO-1 DEB 3.2 02:28:01 51° NNE 02:28:01 51° NNE 02:30:25 10° ENE
Cosmos 2112 Rocket 4.0 02:22:32 10° NNW 02:27:45 58° WSW 02:30:48 25° S
CZ-4C R/B 3.5 02:28:03 41° SSW 02:29:23 61° W 02:33:48 10° NNW
Meteor 1-29 4.4 02:29:12 10° NNW 02:31:35 23° WNW 02:31:35 23° WNW
IRS-1D 3.6 02:26:49 10° N 02:31:56 65° WNW 02:34:11 33° SW
Gblst 52 Del rocket 4.5 02:28:42 22° W 02:32:37 67° NNW 02:38:11 10° ENE
SL-16 R/B 3.5 02:33:14 25° WSW 02:33:56 25° W 02:39:02 10° NW
USA 305 4.3 02:35:53 10° WNW 02:39:52 36° N 02:43:51 10° ENE
NOSS 3-4 (A) 3.8 02:33:01 10° NW 02:40:00 78° SW 02:47:48 10° SSE
NOSS 3-4 (C) 3.8 02:33:07 10° NW 02:40:06 78° SW 02:47:54 10° SSE
Meteor 1-12 Rocket 4.3 02:34:42 10° NNW 02:40:42 71° W 02:46:15 12° S
Cosmos 1378 3.0 02:40:01 43° SSW 02:41:06 75° W 02:44:48 10° N
Cosmos 1821 Rocket 4.4 02:36:25 10° NNW 02:42:21 44° W 02:45:36 25° SW
USA 81 4.0 02:38:17 10° N 02:43:36 85° W 02:48:34 12° S
Meteor 1-13 Rocket 4.2 02:40:01 24° SSW 02:43:40 80° WNW 02:49:23 10° N
IRS-1C 4.2 02:38:24 10° NNE 02:43:47 82° ESE 02:47:38 19° SSW
Cosmos 1733 3.7 02:41:59 10° N 02:45:43 57° ENE 02:49:25 10° SSE
Helios 1B rocket 4.4 02:43:35 10° NNW 02:45:54 15° WNW 02:46:37 14° WNW
SL-4 R/B 2.5 02:46:39 11° WNW 02:51:12 50° SW 02:55:49 10° SE
Meteor 2-4 Rocket 4.5 02:49:18 25° WSW 02:52:03 39° WNW 02:57:34 10° N
Cosmos 1805 3.2 02:48:21 10° N 02:52:17 87° ENE 02:56:12 10° S
Cosmos 1356 Rocket 3.3 02:49:24 10° NNW 02:53:31 74° W 02:57:26 11° S
FALCON 9 DEB 3.1 02:54:08 45° SW 02:54:09 45° SW 02:57:07 10° SE
ATLAS 2AS CENTAUR R/B 2.8 02:47:01 10° NW 02:54:31 86° NE 03:01:22 10° SE
DELTA 2 R/B (1) 4.3 02:52:48 26° SW 02:55:01 36° S 03:00:04 10° ESE
MSX 3.8 02:51:25 10° NNE 02:57:13 89° WNW 03:02:11 14° SSW
X-37B 1.3 02:56:51 34° SSW 02:57:28 38° SSE 03:00:28 10° E
CZ-4B R/B 3.3 02:52:57 10° NNE 02:57:44 84° WNW 03:01:17 18° SSW
USA 306 4.3 02:53:46 10° WNW 02:57:49 38° N 03:01:52 10° E
Cosmos 1535 Rocket 4.5 02:53:26 10° NNW 02:59:27 61° W 03:05:30 10° S
Cosmos 1680 Rocket 4.5 02:57:36 10° NW 03:01:59 27° W 03:03:41 22° SW
FALCON 9 DEB 3.7 03:02:30 30° SSW 03:02:30 30° SSW 03:04:49 10° SSE
Cosmos 2084 3.4 03:00:34 27° SW 03:02:45 78° NW 03:07:03 10° NE
Cosmos 2082 Rocket 3.1 02:58:52 10° NW 03:03:27 26° WSW 03:05:33 21° SW
Resurs 1-4 Rocket 3.9 03:01:25 10° NNW 03:04:37 17° NW 03:07:01 12° W
SL-08 R/B 3.4 03:04:45 10° S 03:09:35 59° WSW 03:14:22 10° NNW
Cosmos 2151 Rocket 3.6 03:10:02 10° NNW 03:14:33 80° W 03:19:05 10° S
ERS-1 4.4 03:09:43 10° N 03:14:40 69° WNW 03:19:03 13° SSW
FALCON 9 DEB 4.0 03:15:20 23° SSW 03:15:20 23° SSW 03:17:35 10° SSE
USA 307 4.2 03:10:58 10° WNW 03:15:03 41° NNE 03:19:09 10° E
CZ-2D R/B 4.1 03:13:05 10° NNW 03:16:03 15° NW 03:19:01 10° W
ADEOS Rocket 3.8 03:11:24 13° SSW 03:16:42 37° W 03:23:12 10° NNW
COSMOS 2441 4.4 03:14:13 10° N 03:19:02 64° WNW 03:23:26 12° SSW
Okean 2 Rocket 3.2 03:14:50 10° NNW 03:19:11 55° W 03:23:29 10° S
IRAS Rocket 4.3 03:14:29 10° SSE 03:19:59 87° ENE 03:25:35 10° NNW
Cosmos 1300 Rocket 3.9 03:16:15 10° NNW 03:20:28 43° W 03:24:40 10° SSW
Cosmos 1818 4.4 03:18:12 10° NNW 03:23:37 57° NE 03:29:00 10° SE
CZ-2D R/B 3.5 03:21:11 10° N 03:25:17 65° WNW 03:29:20 11° SSW
Cosmos 2221 Rocket 3.8 03:22:38 13° SSW 03:26:32 55° WNW 03:31:00 10° N
Cosmos 2344 4.5 03:17:27 10° NW 03:26:37 83° NE 03:39:29 10° SE
USA 234 3.6 03:21:07 10° NE 03:27:34 63° NNW 03:33:43 11° WSW
USA 308 4.0 03:23:40 10° WNW 03:27:48 44° NNE 03:31:56 10° E
Cosmos 2278 Rocket 3.9 03:26:20 10° W 03:30:21 19° NW 03:34:23 10° N
SL-24 R/B - RUBIN 2 4.1 03:27:29 10° NW 03:33:11 85° NE 03:38:08 10° SE
Cosmos 1842 3.2 03:29:22 10° S 03:33:14 87° ESE 03:37:08 10° N
FALCON 9 DEB 4.2 03:32:07 17° WSW 03:33:15 20° SW 03:35:38 10° S
Cosmos 1726 3.2 03:29:45 10° N 03:33:24 49° ENE 03:37:01 10° SSE
Cosmos 1048 Rocket 4.0 03:28:16 10° NNW 03:33:41 81° WSW 03:39:01 10° SSE
Cosmos 1943 Rocket 2.3 03:29:16 13° SW 03:34:21 63° WNW 03:39:59 10° NNE
Okean 2 3.8 03:32:37 10° S 03:36:44 68° E 03:40:53 10° NNE
ADEOS II 3.8 03:35:54 10° NNW 03:39:16 18° WNW 03:42:39 10° W
Gbstr 26 Del rocket 4.0 03:35:38 10° W 03:41:12 54° N 03:45:43 10° ENE
CZ-2C R/B 2.4 03:37:39 10° NNE 03:42:25 86° WNW 03:47:20 10° SSW
H-2A R/B 4.2 03:39:38 10° SE 03:43:23 32° ENE 03:47:14 10° N
Cosmos 1605 Rocket 4.4 03:39:45 10° NNW 03:45:21 39° W 03:50:59 10° SSW
Okean 1 Rocket 3.0 03:41:10 10° NNW 03:45:40 79° W 03:50:06 10° S
ARIANE 5 R/B 3.2 03:41:28 10° N 03:46:19 39° WNW 03:51:06 10° SW
Cosmos 1833 4.5 03:41:41 10° NNW 03:47:26 78° ENE 03:53:11 10° SSE
CZ-2C R/B 2.8 03:49:21 10° N 03:53:04 58° WNW 03:56:50 10° SSW
Cosmos 2369 Rocket 2.2 03:50:03 10° SSW 03:55:38 76° WNW 04:01:17 10° NNE
Spot 4 Rocket 4.4 03:51:51 10° N 03:56:49 48° WNW 04:01:44 10° SW
Cosmos 1758 3.6 03:52:47 10° N 03:56:53 75° E 04:00:58 10° SSE
Cosmos 1484 Rocket 3.6 03:53:00 10° NNE 03:56:57 56° E 04:00:53 10° S
Meteor 2-20 Rocket 4.5 03:52:30 10° SSW 03:58:38 76° W 04:04:50 10° N
Cosmos 494 Rocket 4.0 03:55:12 10° NNW 04:00:25 66° WSW 04:05:34 10° S
ALOS 2.4 03:56:41 10° NNE 04:01:24 83° ESE 04:06:04 10° SSW
Cosmos 2016 Rocket 4.4 03:55:06 10° N 04:01:30 75° E 04:07:49 10° SSE
PAYLOAD A 4.2 03:57:17 10° N 04:02:19 54° WNW 04:07:07 10° SW
Landsat 5 3.8 03:58:01 10° SSE 04:02:30 85° ENE 04:07:04 10° NNW
CREW DRAGON DEMO-1 DEB 4.0 04:00:05 10° WNW 04:02:36 33° N 04:05:08 10° ENE
Cosmos 1900 4.4 03:58:12 10° SW 04:03:20 83° NW 04:08:28 10° NE
Cosmos 2100 Rocket 4.0 03:57:27 10° NNW 04:03:36 69° W 04:09:46 10° S
Cosmos 2298 Rocket 4.2 03:58:42 10° SW 04:03:57 63° WNW 04:09:15 10° NNE
IDEFIX/ARIANE 42P 4.1 04:00:32 10° NNW 04:04:14 20° WNW 04:07:56 10° WSW
Cosmos 2061 Rocket 4.3 04:00:11 10° N 04:06:26 77° E 04:12:40 10° SSE
